Regional Weather Roundup
Issued by NWS

Home | Current Version | Previous Version | Text Only | Print | Product List | Glossary On
Versions: 1 2 3 4 5 6 7 8 9 10 11 12 13 14 15 16 17 18 19 20 21 22 23 24 25 26 27 28
000
ASUS46 KSEW 202010
RWRWA

WASHINGTON REGIONAL WEATHER ROUNDUP
NATIONAL WEATHER SERVICE SEATTLE WA
100 PM PDT SUN AUG 20 2017

NOTE:"FAIR" INDICATES FEW OR NO CLOUDS BELOW 12,000 FEET WITH NO
SIGNIFICANT WEATHER AND/OR OBSTRUCTIONS TO VISIBILITY.

WAZ507-509-555>559-202100-
SEATTLE, TACOMA, EVERETT, AND VICINITY

CITY           SKY/WX    TMP DP  RH WIND       PRES   REMARKS
EVERETT        PTSUNNY   68  51  54 VRB5      30.17S
BOEING FIELD   PTSUNNY   71  55  56 VRB6      30.14F
RENTON         PTSUNNY   71  54  54 NW9       30.13F
SEATAC AIRPORT PTSUNNY   70  52  52 VRB6      30.15F
JBLM-MCCHORD   PTSUNNY   71  53  53 N5        30.15S
PUYALLUP       FAIR      73  50  43 VRB3      30.15S
BREMERTON      CLOUDY    72  50  45 CALM      30.15F
JBLM-FT LEWIS  PTSUNNY   71  55  56 NW7       30.14F
TACOMA NARROWS PTSUNNY   68  49  50 VRB5      30.16S
$$

WAZ001-503-506-510-514-515-202100-
NORTH INTERIOR

CITY           SKY/WX    TMP DP  RH WIND       PRES   REMARKS
BELLINGHAM     PTSUNNY   66  54  65 S8        30.15R
FRIDAY HARBOR  PTSUNNY   64  53  67 SE5       30.16S
EASTSOUND      PTSUNNY   66  54  63 N3        30.14F
PORT ANGELES   CLOUDY    64  56  75 NW6       30.16F
EDIZ HOOK      CLOUDY    57  53  88 W10       30.15F
PORT TOWNSEND  FAIR      72  55  56 SE7       30.15S
NAS WHIDBEY    PTSUNNY   63  52  67 W12       30.19S
ARLINGTON      PTSUNNY   72  52  49 VRB6      30.15F
BURLINGTON     SUNNY     70  54  56 VRB6      30.15S
$$

WAZ020-022-039-040-504-511-512-202100-
SOUTHWEST INTERIOR

CITY           SKY/WX    TMP DP  RH WIND       PRES   REMARKS
SHELTON          N/A     71  51  49 CALM      30.13S
OLYMPIA        PTSUNNY   71  52  50 N9        30.15F
CHEHALIS       FAIR      75  54  46 NW5       30.14F
KELSO          SUNNY     74  55  51 VRB6      30.12F
VANCOUVER      MOSUNNY   73  54  51 NW7       30.10F
SCAPPOOSE, OR  SUNNY     77  51  40 N12       30.09F
PORTLAND, OR   PTSUNNY   72  52  49 N6        30.11F
$$

WAZ021-516-517-202100-
WASHINGTON COAST

CITY           SKY/WX    TMP DP  RH WIND       PRES   REMARKS
FORKS          CLOUDY    68  58  70 VRB5      30.18S
HOQUIAM        CLOUDY    67  58  72 W10       30.16F
ASTORIA, OR    MOSUNNY   68  56  65 NW15      30.15S
$$

WAZ019-023-024-040-567>569-202100-
CASCADE MOUNTAINS AND COLUMBIA GORGE

CITY           SKY/WX    TMP DP  RH WIND       PRES   REMARKS
STAMPEDE PASS  MOSUNNY   66  45  46 SW8       30.19S
TROUTDALE, OR  MOSUNNY   72  51  47 MISG      30.10F
HOOD RIVER, OR PTCLDY    77  48  36 W9        30.05F
THE DALLES, OR PTSUNNY   80  50  34 N13       30.02F
$$

WAZ026-027-041>044-520-521-202100-
EAST SLOPES

CITY           SKY/WX    TMP DP  RH WIND       PRES   REMARKS
OMAK           PTSUNNY   81  35  19 CALM      30.02F
WENATCHEE      MOSUNNY   80  39  23 VRB7      30.01F
ELLENSBURG     MOSUNNY   81  46  29 SE6       30.05S
YAKIMA         MOSUNNY   83  41  22 E5        30.04F
SUNNYSIDE ARPT   N/A     74  45  35 S6        30.04F
YAKIMA TC      FAIR      81  33  17 W3        30.02F
$$

WAZ028-034-035-202100-
COLUMBIA BASIN

CITY           SKY/WX    TMP DP  RH WIND       PRES   REMARKS
EPHRATA        PTSUNNY   80  39  23 S9G21     30.03F
MOSES LAKE     PTSUNNY   80  41  24 SW7       30.04F
PASCO          PTSUNNY   80  43  26 CALM      30.03F
RICHLAND ARPT  MOCLDY    83  42  23 SW5       30.02F
HERMISTON, OR  PTSUNNY   80  47  31 CALM      30.03F
$$

WAZ036>038-202100-
NORTHEAST WASHINGTON

CITY           SKY/WX    TMP DP  RH WIND       PRES   REMARKS
SPOKANE GEIGER PTSUNNY   76  40  27 SW15      30.07F
SPOKANE FELTS  PTSUNNY   80  41  24 VRB6G18   30.06F
FAIRCHILD AFB  PTSUNNY   77  40  26 SW10      30.07F
COEURDALENE,ID PTSUNNY   76  45  33 S3        30.08F
DEER PARK      PTSUNNY   76  39  26 S10G18    30.06F
$$

WAZ029>033-202100-
SOUTHEAST WASHINGTON

CITY           SKY/WX    TMP DP  RH WIND       PRES   REMARKS
PULLMAN        PTSUNNY   75  39  27 SW5       30.11F
LEWISTON, ID   PTSUNNY   81  43  26 N5        30.04F
WALLA WALLA    PTSUNNY   80  44  27 NW8       30.05F
PENDLETON, OR  PTSUNNY   78  38  23 NW7       30.05F
$$




USA.gov is the U.S. government's official web portal to all federal, state and local government web resources and services.